CW3077 Weather Reports


Display with metric or nautical units.
time (UTC)temp
F
wind
direction
speed
MPH
gust
MPH
rain 1hr
in
rain 24hr
in
rain mn
in
humidity
%
barometer
mb
20260901143516 85 225 1.0 5.0 0.00 0.00 0.00 72 1018.5
20260901143017 84 248 2.0 7.0 0.00 0.00 0.00 73 1018.5
20260901142516 84 0.0 3.0 0.00 0.00 0.00 75 1018.6
20260901142036 83 0.0 3.0 0.00 0.00 0.00 75 1018.5
20260901141516 83 0.0 0.0 0.00 0.00 0.00 76 1018.5
20260901141016 82 248 1.0 3.0 0.00 0.00 0.00 77 1018.4
20260901140537 82 0.0 0.0 0.00 0.00 0.00 79 1018.6
20260901140016 81 0.0 2.0 0.00 0.00 0.00 80 1018.5
20260901135516 81 248 1.0 3.0 0.00 0.00 0.00 80 1018.5
20260901135016 80 248 1.0 3.0 0.00 0.00 0.00 81 1018.4
20260901134516 80 0.0 3.0 0.00 0.00 0.00 81 1018.4
20260901134016 79 0.0 0.0 0.00 0.00 0.00 83 1018.4
20260901133516 79 0.0 0.0 0.00 0.00 0.00 83 1018.3
20260901133016 78 0.0 0.0 0.00 0.00 0.00 85 1018.3
20260901132517 78 0.0 0.0 0.00 0.00 0.00 86 1018.2
20260901132016 77 0.0 1.0 0.00 0.00 0.00 87 1018.2
20260901131516 77 0.0 1.0 0.00 0.00 0.00 87 1018.2
20260901131036 77 0.0 1.0 0.00 0.00 0.00 87 1018.1
20260901130517 77 0.0 0.0 0.00 0.00 0.00 87 1018.0
20260901130016 77 0.0 0.0 0.00 0.00 0.00 87 1017.9
20260901125517 76 0.0 0.0 0.00 0.00 0.00 87 1017.9
20260901125016 76 0.0 0.0 0.00 0.00 0.00 87 1017.8
20260901124516 76 0.0 0.0 0.00 0.00 0.00 86 1017.8
20260901124016 76 0.0 0.0 0.00 0.00 0.00 86 1017.9
20260901123516 77 0.0 0.0 0.00 0.00 0.00 86 1017.9
20260901123016 77 0.0 0.0 0.00 0.00 0.00 85 1017.8
20260901122516 77 0.0 0.0 0.00 0.00 0.00 85 1017.7
20260901122036 77 0.0 0.0 0.00 0.00 0.00 84 1017.5
20260901121516 77 0.0 0.0 0.00 0.00 0.00 84 1017.5
20260901121016 77 0.0 0.0 0.00 0.00 0.00 84 1017.5
20260901120516 77 0.0 0.0 0.00 0.00 0.00 84 1017.4
20260901120016 77 0.0 0.0 0.00 0.00 0.00 83 1017.4
20260901115516 77 0.0 0.0 0.00 0.00 0.00 83 1017.4
20260901115016 78 0.0 0.0 0.00 0.00 0.00 83 1017.4
20260901114516 78 0.0 0.0 0.00 0.00 0.00 83 1017.5
20260901114016 78 0.0 0.0 0.00 0.00 0.00 82 1017.4
20260901113516 78 0.0 0.0 0.00 0.00 0.00 82 1017.4
20260901113016 78 0.0 0.0 0.00 0.00 0.00 82 1017.5
20260901112516 78 0.0 0.0 0.00 0.00 0.00 82 1017.4
20260901112016 78 0.0 4.0 0.00 0.00 0.00 82 1017.4
20260901111516 78 0.0 2.0 0.00 0.00 0.00 81 1017.4
20260901111056 78 0.0 2.0 0.00 0.00 0.00 81 1017.4
20260901110516 78 0.0 2.0 0.00 0.00 0.00 81 1017.4
20260901110016 79 225 1.0 3.0 0.00 0.00 0.00 81 1017.3
20260901105516 79 225 1.0 4.0 0.00 0.00 0.00 81 1017.4
20260901105016 79 225 1.0 4.0 0.00 0.00 0.00 81 1017.2
20260901104516 79 225 1.0 5.0 0.00 0.00 0.00 81 1017.2
20260901104016 79 225 1.0 4.0 0.00 0.00 0.00 81 1017.2
20260901103536 79 225 1.0 5.0 0.00 0.00 0.00 81 1017.3
20260901103016 79 0.0 1.0 0.00 0.00 0.00 81 1017.2
20260901102516 79 0.0 4.0 0.00 0.00 0.00 81 1017.2
20260901102016 79 225 1.0 4.0 0.00 0.00 0.00 81 1017.1
20260901101516 79 225 1.0 5.0 0.00 0.00 0.00 81 1017.2
20260901101016 79 225 1.0 4.0 0.00 0.00 0.00 80 1017.2
20260901100516 79 225 2.0 4.0 0.00 0.00 0.00 80 1017.2
20260901100036 79 225 2.0 5.0 0.00 0.00 0.00 80 1017.1
20260901095516 79 225 1.0 5.0 0.00 0.00 0.00 80 1017.1
20260901095037 79 225 2.0 5.0 0.00 0.00 0.00 79 1017.2
20260901094536 79 225 1.0 5.0 0.00 0.00 0.00 79 1017.1
20260901094016 79 225 1.0 6.0 0.00 0.00 0.00 79 1017.2
20260901093556 79 225 1.0 4.0 0.00 0.00 0.00 78 1017.2
20260901093056 79 225 1.0 5.0 0.00 0.00 0.00 78 1017.2
20260901092516 80 225 1.0 6.0 0.00 0.00 0.00 77 1017.3
20260901092016 80 225 1.0 4.0 0.00 0.00 0.00 76 1017.4
20260901091516 80 0.0 4.0 0.00 0.00 0.00 76 1017.4
20260901091015 80 225 1.0 4.0 0.00 0.00 0.00 75 1017.4
20260901090516 80 0.0 2.0 0.00 0.00 0.00 74 1017.3
20260901090056 80 0.0 2.0 0.00 0.00 0.00 74 1017.2
20260901085536 80 0.0 2.0 0.00 0.00 0.00 74 1017.2
20260901085015 80 0.0 4.0 0.00 0.00 0.00 74 1017.2
20260901084516 81 0.0 5.0 0.00 0.00 0.00 74 1017.2
20260901084016 81 0.0 4.0 0.00 0.00 0.00 73 1017.2
20260901083536 81 225 1.0 2.0 0.00 0.00 0.00 73 1017.3
20260901083016 81 225 1.0 2.0 0.00 0.00 0.00 73 1017.2
20260901082515 81 225 2.0 8.0 0.00 0.00 0.00 73 1017.2
20260901082016 81 203 2.0 8.0 0.00 0.00 0.00 73 1017.1
20260901081516 81 203 1.0 3.0 0.00 0.00 0.00 72 1017.1
20260901081016 81 203 1.0 4.0 0.00 0.00 0.00 72 1017.1
20260901080516 81 180 1.0 5.0 0.00 0.00 0.00 71 1017.2
20260901080036 82 203 2.0 5.0 0.00 0.00 0.00 71 1017.4
20260901075535 82 180 2.0 7.0 0.00 0.00 0.00 70 1017.3
20260901075015 82 180 2.0 4.0 0.00 0.00 0.00 70 1017.4
20260901074516 82 180 2.0 4.0 0.00 0.00 0.00 70 1017.3
20260901074015 82 180 2.0 5.0 0.00 0.00 0.00 69 1017.5
20260901073518 82 180 2.0 7.0 0.00 0.00 0.00 69 1017.4
20260901073035 82 180 1.0 5.0 0.00 0.00 0.00 69 1017.4
20260901072515 83 180 1.0 4.0 0.00 0.00 0.00 69 1017.5
20260901072015 83 180 2.0 5.0 0.00 0.00 0.00 69 1017.4
20260901071515 83 203 1.0 4.0 0.00 0.00 0.00 69 1017.6
20260901071015 83 225 2.0 6.0 0.00 0.00 0.00 69 1017.6
20260901070536 83 225 2.0 6.0 0.00 0.00 0.00 68 1017.7
20260901070015 83 203 3.0 8.0 0.00 0.00 0.00 68 1017.6
20260901065516 83 180 2.0 6.0 0.00 0.00 0.00 68 1017.5
20260901065015 83 180 3.0 8.0 0.00 0.00 0.00 67 1017.5
20260901064517 83 158 3.0 9.0 0.00 0.00 0.00 67 1017.5
20260901064016 83 180 4.0 9.0 0.00 0.00 0.00 67 1017.4
20260901063535 84 180 4.0 9.0 0.00 0.00 0.00 67 1017.3
20260901063015 84 180 3.0 8.0 0.00 0.00 0.00 68 1017.1
20260901062516 84 180 3.0 9.0 0.00 0.00 0.00 68 1017.1
20260901062015 84 180 2.0 8.0 0.00 0.00 0.00 67 1017.1
20260901061536 84 180 4.0 11.0 0.00 0.00 0.00 67 1017.1
20260901061035 84 180 4.0 11.0 0.00 0.00 0.00 67 1017.0
20260901060515 84 180 4.0 11.0 0.00 0.00 0.00 66 1017.1
20260901060015 84 225 3.0 8.0 0.00 0.00 0.00 66 1017.0
20260901055535 84 203 3.0 9.0 0.00 0.00 0.00 65 1017.0
20260901055015 85 158 3.0 12.0 0.00 0.00 0.00 65 1017.1
20260901054515 85 158 3.0 7.0 0.00 0.00 0.00 65 1016.9
20260901054015 85 180 4.0 9.0 0.00 0.00 0.00 64 1016.9
20260901053515 85 158 4.0 10.0 0.00 0.00 0.00 64 1017.1
20260901053015 85 158 3.0 13.0 0.00 0.00 0.00 63 1016.9
20260901052515 85 203 3.0 13.0 0.00 0.00 0.00 63 1016.9
20260901052015 85 180 3.0 8.0 0.00 0.00 0.00 63 1016.8
20260901051515 85 158 3.0 9.0 0.00 0.00 0.00 63 1016.8
20260901051015 85 180 4.0 11.0 0.00 0.00 0.00 62 1016.7
20260901050515 85 180 4.0 10.0 0.00 0.00 0.00 62 1016.7
20260901050055 85 158 3.0 8.0 0.00 0.00 0.00 62 1016.7
20260901045516 85 158 4.0 9.0 0.00 0.00 0.00 62 1016.7
20260901045016 86 158 5.0 12.0 0.00 0.00 0.00 62 1016.6
20260901044516 86 158 6.0 13.0 0.00 0.00 0.00 61 1016.7
20260901044016 86 180 5.0 10.0 0.00 0.00 0.00 61 1016.7
20260901043516 86 158 4.0 11.0 0.00 0.00 0.00 61 1016.6
20260901043016 86 158 5.0 12.0 0.00 0.00 0.00 60 1016.6
20260901042516 86 158 4.0 11.0 0.00 0.00 0.00 60 1016.7
20260901042036 86 180 4.0 11.0 0.00 0.00 0.00 60 1016.6
20260901041516 86 135 5.0 13.0 0.00 0.00 0.00 59 1016.5
20260901041016 87 135 4.0 9.0 0.00 0.00 0.00 59 1016.5
20260901040536 87 158 3.0 9.0 0.00 0.00 0.00 59 1016.5
20260901040016 87 158 4.0 12.0 0.00 0.00 0.00 59 1016.6
20260901035516 87 135 4.0 9.0 0.00 0.00 0.00 58 1016.5
20260901035016 87 158 6.0 17.0 0.00 0.00 0.00 58 1016.5
20260901034516 87 158 6.0 14.0 0.00 0.00 0.00 57 1016.4
20260901034017 88 158 6.0 14.0 0.00 0.00 0.00 57 1016.5
20260901033516 88 158 5.0 15.0 0.00 0.00 0.00 56 1016.4
20260901033016 88 158 5.0 12.0 0.00 0.00 0.00 55 1016.5
20260901032536 88 158 6.0 12.0 0.00 0.00 0.00 54 1016.2
20260901032016 88 158 6.0 17.0 0.00 0.00 0.00 53 1016.1
20260901031516 88 158 5.0 11.0 0.00 0.00 0.00 52 1016.1
20260901031016 89 135 6.0 14.0 0.00 0.00 0.00 51 1016.0
20260901030516 89 135 5.0 10.0 0.00 0.00 0.00 50 1016.0
20260901030016 89 135 4.0 11.0 0.00 0.00 0.00 49 1015.9
20260901025516 88 135 3.0 9.0 0.00 0.00 0.00 48 1015.7
20260901025036 88 135 4.0 10.0 0.00 0.00 0.00 47 1015.7
20260901024515 88 135 3.0 6.0 0.00 0.00 0.00 46 1015.7
20260901024036 88 135 3.0 7.0 0.00 0.00 0.00 46 1015.7
20260901023516 88 135 3.0 8.0 0.00 0.00 0.00 46 1015.4
20260901023016 88 135 2.0 7.0 0.00 0.00 0.00 46 1015.4
20260901022515 88 135 3.0 7.0 0.00 0.00 0.00 46 1015.3
20260901022015 88 135 2.0 5.0 0.00 0.00 0.00 46 1015.3
20260901021556 88 135 3.0 5.0 0.00 0.00 0.00 46 1015.2
20260901021016 89 135 2.0 5.0 0.00 0.00 0.00 46 1015.3
20260901020515 89 135 1.0 4.0 0.00 0.00 0.00 46 1015.0
20260901020016 88 135 2.0 4.0 0.00 0.00 0.00 46 1015.0
20260901015516 89 113 2.0 3.0 0.00 0.00 0.00 46 1014.9
20260901015016 89 113 1.0 3.0 0.00 0.00 0.00 46 1014.7
20260901014515 89 113 1.0 3.0 0.00 0.00 0.00 46 1014.7
20260901014015 89 113 1.0 3.0 0.00 0.00 0.00 45 1014.7
20260901013515 90 113 1.0 3.0 0.00 0.00 0.00 45 1014.8
20260901013036 90 113 2.0 3.0 0.00 0.00 0.00 44 1014.8
20260901012515 91 113 1.0 3.0 0.00 0.00 0.00 44 1014.7
20260901012035 91 113 1.0 3.0 0.00 0.00 0.00 43 1014.5
20260901011515 91 113 2.0 4.0 0.00 0.00 0.00 42 1014.5
20260901011015 92 113 2.0 3.0 0.00 0.00 0.00 42 1014.5
20260901010515 92 135 2.0 5.0 0.00 0.00 0.00 42 1014.4
20260901010016 92 135 2.0 5.0 0.00 0.00 0.00 41 1014.5
20260901005036 93 135 3.0 5.0 0.00 0.00 0.00 40 1014.6
20260901004516 93 90 3.0 7.0 0.00 0.00 0.00 40 1014.5
20260901004035 94 113 3.0 7.0 0.00 0.00 0.00 39 1014.5
20260901003517 94 135 3.0 8.0 0.00 0.00 0.00 40 1014.5
20260901003015 94 135 2.0 5.0 0.00 0.00 0.00 40 1014.4
20260901002515 94 135 3.0 8.0 0.00 0.00 0.00 39 1014.4
20260901002015 95 135 3.0 9.0 0.00 0.00 0.00 40 1014.5
20260901001516 95 135 4.0 11.0 0.00 0.00 0.00 40 1014.4
20260901001055 95 135 4.0 10.0 0.00 0.00 0.00 39 1014.4
20260901000516 95 135 4.0 11.0 0.00 0.00 0.00 39 1014.4
20260901000015 95 135 2.0 7.0 0.00 0.00 0.00 38 1014.4
20260831235515 95 135 3.0 5.0 0.00 0.00 0.00 38 1014.4
20260831235036 95 113 4.0 10.0 0.00 0.00 0.00 38 1014.4
20260831234515 96 90 3.0 7.0 0.00 0.00 0.00 38 1014.4
20260831234015 96 90 4.0 7.0 0.00 0.00 0.00 37 1014.5
20260831233515 96 113 3.0 5.0 0.00 0.00 0.00 38 1014.5
20260831233015 96 113 3.0 9.0 0.00 0.00 0.00 37 1014.5
20260831232515 97 135 5.0 9.0 0.00 0.00 0.00 37 1014.6
20260831232015 97 90 7.0 15.0 0.00 0.00 0.00 37 1014.6
20260831231515 97 90 5.0 12.0 0.00 0.00 0.00 37 1014.7
20260831231015 97 135 6.0 13.0 0.00 0.00 0.00 38 1014.6
20260831230515 97 90 5.0 9.0 0.00 0.00 0.00 38 1014.7
20260831230015 97 135 3.0 9.0 0.00 0.00 0.00 38 1014.6
20260831225515 97 135 3.0 9.0 0.00 0.00 0.00 37 1014.6
20260831225015 97 90 4.0 11.0 0.00 0.00 0.00 36 1014.7
20260831224515 97 90 4.0 8.0 0.00 0.00 0.00 35 1014.6
20260831224015 97 135 3.0 8.0 0.00 0.00 0.00 35 1014.7
20260831223515 98 90 3.0 9.0 0.00 0.00 0.00 33 1014.7
20260831223015 98 113 4.0 11.0 0.00 0.00 0.00 35 1014.8
20260831222515 98 180 4.0 10.0 0.00 0.00 0.00 37 1014.8
20260831222035 98 113 3.0 7.0 0.00 0.00 0.00 37 1014.9
20260831221515 99 90 4.0 9.0 0.00 0.00 0.00 36 1014.9
20260831221015 99 90 5.0 11.0 0.00 0.00 0.00 35 1014.9
20260831220515 98 90 3.0 8.0 0.00 0.00 0.00 36 1014.9
20260831220015 98 158 4.0 11.0 0.00 0.00 0.00 38 1014.9
20260831215515 97 158 3.0 9.0 0.00 0.00 0.00 39 1014.9
20260831215015 97 158 2.0 6.0 0.00 0.00 0.00 40 1015.1
20260831214515 97 158 2.0 6.0 0.00 0.00 0.00 40 1015.2
20260831214015 95 158 2.0 7.0 0.00 0.00 0.00 41 1015.2
20260831213515 95 158 1.0 7.0 0.00 0.00 0.00 40 1015.2
20260831213016 97 135 3.0 10.0 0.00 0.00 0.00 39 1015.3
20260831212515 98 135 5.0 11.0 0.00 0.00 0.00 38 1015.4
20260831212015 98 158 5.0 10.0 0.00 0.00 0.00 39 1015.5
20260831211515 98 113 2.0 4.0 0.00 0.00 0.00 42 1015.5
20260831211015 98 113 2.0 5.0 0.00 0.00 0.00 41 1015.6
20260831210536 97 158 4.0 9.0 0.00 0.00 0.00 41 1015.5
20260831210015 98 158 3.0 7.0 0.00 0.00 0.00 40 1015.7
20260831205515 97 158 1.0 6.0 0.00 0.00 0.00 42 1015.7
20260831205035 96 158 1.0 3.0 0.00 0.00 0.00 42 1015.9
20260831204515 97 158 3.0 11.0 0.00 0.00 0.00 41 1016.0
20260831204015 98 158 4.0 10.0 0.00 0.00 0.00 40 1016.1
20260831203515 99 158 2.0 6.0 0.00 0.00 0.00 41 1016.2
20260831203015 99 158 3.0 8.0 0.00 0.00 0.00 41 1016.4
20260831202515 98 135 4.0 9.0 0.00 0.00 0.00 42 1016.4
20260831202015 97 113 5.0 12.0 0.00 0.00 0.00 43 1016.5
20260831201515 96 113 3.0 8.0 0.00 0.00 0.00 43 1016.5
20260831201015 97 113 2.0 6.0 0.00 0.00 0.00 43 1016.6
20260831200535 99 113 5.0 11.0 0.00 0.00 0.00 41 1016.8
20260831200015 99 158 5.0 12.0 0.00 0.00 0.00 40 1016.8
20260831195515 99 135 3.0 11.0 0.00 0.00 0.00 40 1016.8
20260831195035 99 90 4.0 10.0 0.00 0.00 0.00 40 1017.0
20260831194515 98 90 4.0 9.0 0.00 0.00 0.00 39 1017.0
20260831194015 98 135 5.0 12.0 0.00 0.00 0.00 42 1017.0
20260831193515 97 135 5.0 13.0 0.00 0.00 0.00 42 1017.0
20260831193015 96 248 3.0 7.0 0.00 0.00 0.00 44 1017.1
20260831192515 99 113 4.0 12.0 0.00 0.00 0.00 42 1017.2
20260831192017 98 158 5.0 11.0 0.00 0.00 0.00 44 1017.3
20260831191517 96 225 4.0 13.0 0.00 0.00 0.00 45 1017.3
20260831191017 97 113 4.0 8.0 0.00 0.00 0.00 43 1017.3
20260831190517 99 158 3.0 8.0 0.00 0.00 0.00 42 1017.6
20260831190017 98 158 3.0 7.0 0.00 0.00 0.00 45 1017.6
20260831185517 96 180 3.0 9.0 0.00 0.00 0.00 44 1017.6
20260831185017 98 135 3.0 10.0 0.00 0.00 0.00 45 1017.7
20260831184517 99 203 3.0 8.0 0.00 0.00 0.00 42 1017.8
20260831184017 98 135 5.0 15.0 0.00 0.00 0.00 45 1017.7
20260831183517 98 158 5.0 9.0 0.00 0.00 0.00 44 1017.7
20260831183017 96 203 3.0 8.0 0.00 0.00 0.00 47 1017.7
20260831182518 97 135 4.0 9.0 0.00 0.00 0.00 43 1017.8
20260831182017 97 158 4.0 10.0 0.00 0.00 0.00 43 1017.8
20260831181517 97 135 5.0 9.0 0.00 0.00 0.00 42 1017.9
20260831181037 96 180 4.0 10.0 0.00 0.00 0.00 43 1017.9
20260831180517 95 203 4.0 10.0 0.00 0.00 0.00 48 1017.9
20260831180017 96 135 2.0 8.0 0.00 0.00 0.00 46 1018.0
20260831175557 97 180 3.0 10.0 0.00 0.00 0.00 46 1018.1
20260831175017 96 180 3.0 10.0 0.00 0.00 0.00 47 1018.3
20260831174516 95 113 4.0 10.0 0.00 0.00 0.00 46 1018.4
20260831174037 95 135 5.0 13.0 0.00 0.00 0.00 47 1018.6
20260831173517 95 135 5.0 13.0 0.00 0.00 0.00 47 1018.5
20260831173017 96 135 4.0 13.0 0.00 0.00 0.00 44 1018.6
20260831172557 95 135 4.0 10.0 0.00 0.00 0.00 48 1018.7
20260831172016 94 158 4.0 13.0 0.00 0.00 0.00 47 1018.7
20260831171517 93 203 4.0 9.0 0.00 0.00 0.00 50 1018.8
20260831171016 95 203 3.0 8.0 0.00 0.00 0.00 47 1018.8
20260831170516 95 158 5.0 10.0 0.00 0.00 0.00 50 1018.9
20260831170017 93 135 2.0 7.0 0.00 0.00 0.00 53 1018.8
20260831165536 94 158 4.0 10.0 0.00 0.00 0.00 52 1018.8
20260831165017 93 158 2.0 7.0 0.00 0.00 0.00 54 1018.9
20260831164516 92 180 3.0 10.0 0.00 0.00 0.00 55 1018.8
20260831164016 92 158 5.0 10.0 0.00 0.00 0.00 54 1018.8
20260831163516 93 135 5.0 11.0 0.00 0.00 0.00 54 1018.7
20260831163016 92 158 4.0 10.0 0.00 0.00 0.00 56 1018.7
20260831162536 91 203 3.0 9.0 0.00 0.00 0.00 58 1018.8
20260831162016 92 180 4.0 8.0 0.00 0.00 0.00 56 1018.8
20260831161537 91 158 3.0 8.0 0.00 0.00 0.00 59 1018.9
20260831161037 90 158 2.0 8.0 0.00 0.00 0.00 60 1018.7
20260831160516 91 225 4.0 9.0 0.00 0.00 0.00 60 1018.7
20260831160037 90 203 3.0 9.0 0.00 0.00 0.00 61 1018.6
20260831155516 90 135 2.0 7.0 0.00 0.00 0.00 61 1018.8
20260831155016 88 248 3.0 9.0 0.00 0.00 0.00 64 1018.9
20260831154516 88 225 3.0 7.0 0.00 0.00 0.00 64 1018.8
20260831154016 88 135 3.0 8.0 0.00 0.00 0.00 63 1018.6
20260831153516 88 203 4.0 10.0 0.00 0.00 0.00 64 1018.9
20260831153016 88 180 3.0 7.0 0.00 0.00 0.00 65 1018.8
20260831152516 87 225 4.0 9.0 0.00 0.00 0.00 67 1018.7
20260831152018 87 158 3.0 9.0 0.00 0.00 0.00 67 1018.6
20260831151516 87 225 3.0 8.0 0.00 0.00 0.00 65 1018.6
20260831151017 87 225 3.0 8.0 0.00 0.00 0.00 69 1018.6
20260831150516 86 225 4.0 9.0 0.00 0.00 0.00 68 1018.6
20260831150036 87 180 2.0 7.0 0.00 0.00 0.00 68 1018.5
20260831145516 86 203 4.0 11.0 0.00 0.00 0.00 69 1018.6
20260831145016 86 180 4.0 16.0 0.00 0.00 0.00 69 1018.6
20260831144517 86 203 4.0 11.0 0.00 0.00 0.00 70 1018.5
20260831144016 85 203 2.0 7.0 0.00 0.00 0.00 72 1018.6